Weather History for Willimantic, CT

Change the Weather History Date:

Thursday, January 3, 2013

  Actual Average Record
Temperature  
Mean Temperature 16 °F -  
Max Temperature 26 °F 37 °F 62 °F (2000)
Min Temperature 6 °F 15 °F -11 °F (1968)
Degree Days  
Heating Degree Days 49    
Moisture  
Dew Point 3 °F    
Average Humidity 56    
Maximum Humidity 84    
Minimum Humidity 30    
Precipitation  
Precipitation 0.00 in - - ()
Sea Level Pressure  
Sea Level Pressure 30.11 in    
Wind  
Wind Speed 5 mph (NW)    
Max Wind Speed 10 mph    
Max Gust Speed 20 mph    
Visibility 10 miles    
Events      
Averages and records for this station are not official NWS values.
T = Trace of Precipitation, MM = Missing Value Source: NWS Daily Summary

Daily Weather History Graph

Daily Weather History Graph

Search for Another Location

Airport:

Trip Planner

Search our weather history database for the weather conditions in past years. The results will help you decide how hot, cold, wet, or windy it might be!

Date:

Astronomy

Jan. 03, 2013 Rise Set
Actual Time 7:16 AM EST 4:30 PM EST
Civil Twilight 6:44 AM EST 5:02 PM EST
Nautical Twilight 6:09 AM EST 5:37 PM EST
Astronomical Twilight 5:36 AM EST 6:10 PM EST
Moon 11:09 PM EST (1/3) 10:20 AM EST (1/3)
Length of Visible Light 10h 17m
Length of Day
9h 14m
Waning Gibbous, 65% of the Moon is Illuminated
Jan 3
Waning Gibbous
Jan 4
Last Quarter
Jan 11
New
Jan 18
First Quarter
Jan 26
Full

Hourly Weather History & Observations

Time (EST) Temp. Windchill Dew Point Humidity Pressure Visibility Wind Dir Wind Speed Gust Speed Precip Events Conditions
12:52 AM 18.0 °F 6.9 °F 1.9 °F 50% 30.14 in 10.0 mi West 9.2 mph - N/A   Clear
2:52 AM 14.0 °F 5.1 °F -0.0 °F 54% 30.17 in 10.0 mi NW 5.8 mph - N/A   Clear
3:52 AM 12.0 °F 2.7 °F -2.0 °F 53% 30.15 in 10.0 mi North 5.8 mph - N/A   Clear
4:52 AM 10.9 °F 1.4 °F -2.9 °F 54% 30.15 in 10.0 mi NW 5.8 mph - N/A   Clear
5:52 AM 10.0 °F 0.4 °F -4.0 °F 53% 30.16 in 10.0 mi NW 5.8 mph - N/A   Clear
6:52 AM 7.0 °F - -5.1 °F 58% 30.17 in 10.0 mi Calm Calm - N/A   Clear
7:52 AM 6.1 °F - -4.0 °F 63% 30.18 in 10.0 mi Calm Calm - N/A   Clear
8:52 AM 10.0 °F - -5.1 °F 51% 30.17 in 10.0 mi Calm Calm - N/A   Clear
9:52 AM 12.9 °F - -6.0 °F 43% 30.18 in 10.0 mi Calm Calm - N/A   Clear
10:52 AM 18.0 °F 6.9 °F -9.0 °F 30% 30.16 in 10.0 mi WNW 9.2 mph - 0.00 in   Clear
11:52 AM 19.9 °F 10.1 °F -4.0 °F 35% 30.12 in 10.0 mi WNW 8.1 mph - 0.00 in   Clear
12:52 PM 23.0 °F 12.4 °F 3.9 °F 44% 30.09 in 10.0 mi NW 10.4 mph 19.6 mph N/A   Clear
1:52 PM 25.0 °F 16.3 °F 7.0 °F 46% 30.07 in 10.0 mi WNW 8.1 mph - 0.00 in   Clear
2:52 PM 26.1 °F 18.4 °F 7.0 °F 44% 30.07 in 10.0 mi West 6.9 mph - N/A   Clear
3:52 PM 26.1 °F 19.4 °F 9.0 °F 49% 30.06 in 10.0 mi WNW 5.8 mph - N/A   Clear
4:52 PM 25.0 °F - 8.1 °F 49% 30.07 in 10.0 mi Calm Calm - N/A   Clear
5:52 PM 21.0 °F - 10.9 °F 65% 30.06 in 10.0 mi Calm Calm - N/A   Clear
6:52 PM 19.0 °F - 10.0 °F 68% 30.08 in 10.0 mi Calm Calm - N/A   Overcast
7:52 PM 19.9 °F - 10.9 °F 68% 30.07 in 10.0 mi Calm Calm - N/A   Overcast
8:52 PM 19.0 °F 13.9 °F 12.0 °F 74% 30.07 in 10.0 mi NE 3.5 mph - N/A   Overcast
9:52 PM 18.0 °F - 10.9 °F 74% 30.05 in 10.0 mi Calm Calm - N/A   Overcast
10:52 PM 18.0 °F - 12.0 °F 78% 30.06 in 10.0 mi Calm Calm - N/A   Overcast
11:52 PM 14.0 °F - 10.0 °F 84% 30.04 in 10.0 mi Calm Calm - N/A   Clear